![]() |
EMODnet Physics ERDDAP
Easier access to scientific data |
log in|
Brought to you by EMODnet Physics |
| Dataset Title: | NDBC - Collection of dew point temperature (DEWT) TimeSeries - IN SITU MultiPointTimeSeriesObservation
|
| Institution: | NDBC (Dataset ID: TS_DEWT_NDBC) |
| Information: | Summary
| License
| FGDC
| ISO 19115
| Metadata
| Background
| Subset
| Data Access Form
| Make a graph
|
| Name | Last modified | Size | Description | |
|---|---|---|---|---|
| Parent Directory | - | - | ||
| LKWF1_TS_DEWT_012002.nc | 20-Dec-2024 16:08 | 1627172 | ||
| LKWF1_TS_DEWT_012003.nc | 20-Dec-2024 16:17 | 425906 | ||
| LKWF1_TS_DEWT_012004.nc | 20-Dec-2024 16:20 | 909981 | ||
| LKWF1_TS_DEWT_012008.nc | 20-Dec-2024 16:27 | 906800 | ||
| LKWF1_TS_DEWT_012009.nc | 20-Dec-2024 16:30 | 1469756 | ||
| LKWF1_TS_DEWT_012015.nc | 20-Dec-2024 17:06 | 1470647 | ||
| LKWF1_TS_DEWT_012016.nc | 20-Dec-2024 17:16 | 1470402 | ||
| LKWF1_TS_DEWT_012017.nc | 20-Dec-2024 17:22 | 1473505 | ||
| LKWF1_TS_DEWT_012018.nc | 20-Dec-2024 17:29 | 1470498 | ||
| LKWF1_TS_DEWT_012020.nc | 20-Dec-2024 17:42 | 997959 | ||
| LKWF1_TS_DEWT_012021.nc | 20-Dec-2024 17:49 | 420800 | ||
| LKWF1_TS_DEWT_012022.nc | 20-Dec-2024 17:59 | 1627404 | ||
| LKWF1_TS_DEWT_022002.nc | 20-Dec-2024 16:08 | 1627409 | ||
| LKWF1_TS_DEWT_022003.nc | 20-Dec-2024 16:17 | 1626501 | ||
| LKWF1_TS_DEWT_022004.nc | 20-Dec-2024 16:20 | 1627674 | ||
| LKWF1_TS_DEWT_022008.nc | 20-Dec-2024 16:27 | 1160092 | ||
| LKWF1_TS_DEWT_022015.nc | 20-Dec-2024 17:07 | 1149513 | ||
| LKWF1_TS_DEWT_022016.nc | 20-Dec-2024 17:16 | 1477370 | ||
| LKWF1_TS_DEWT_022017.nc | 20-Dec-2024 17:23 | 1476635 | ||
| LKWF1_TS_DEWT_022018.nc | 20-Dec-2024 17:30 | 1477252 | ||
| LKWF1_TS_DEWT_022021.nc | 20-Dec-2024 17:49 | 1477913 | ||
| LKWF1_TS_DEWT_032002.nc | 20-Dec-2024 16:10 | 1462714 | ||
| LKWF1_TS_DEWT_032003.nc | 20-Dec-2024 16:17 | 997293 | ||
| LKWF1_TS_DEWT_032004.nc | 20-Dec-2024 16:21 | 1627424 | ||
| LKWF1_TS_DEWT_032008.nc | 20-Dec-2024 16:27 | 1627284 | ||
| LKWF1_TS_DEWT_032014.nc | 20-Dec-2024 17:00 | 1627263 | ||
| LKWF1_TS_DEWT_032015.nc | 20-Dec-2024 17:07 | 1152106 | ||
| LKWF1_TS_DEWT_032016.nc | 20-Dec-2024 17:17 | 1625222 | ||
| LKWF1_TS_DEWT_032018.nc | 20-Dec-2024 17:30 | 604412 | ||
| LKWF1_TS_DEWT_032021.nc | 20-Dec-2024 17:50 | 1477768 | ||
| LKWF1_TS_DEWT_042002.nc | 20-Dec-2024 16:14 | 1477161 | ||
| LKWF1_TS_DEWT_042003.nc | 20-Dec-2024 16:18 | 1475302 | ||
| LKWF1_TS_DEWT_042004.nc | 20-Dec-2024 16:21 | 1477624 | ||
| LKWF1_TS_DEWT_042008.nc | 20-Dec-2024 16:27 | 1476698 | ||
| LKWF1_TS_DEWT_042014.nc | 20-Dec-2024 17:01 | 915817 | ||
| LKWF1_TS_DEWT_042015.nc | 20-Dec-2024 17:08 | 910544 | ||
| LKWF1_TS_DEWT_042016.nc | 20-Dec-2024 17:17 | 1626092 | ||
| LKWF1_TS_DEWT_042017.nc | 20-Dec-2024 17:24 | 1626441 | ||
| LKWF1_TS_DEWT_042018.nc | 20-Dec-2024 17:31 | 1159886 | ||
| LKWF1_TS_DEWT_042021.nc | 20-Dec-2024 17:50 | 1468680 | ||
| LKWF1_TS_DEWT_052002.nc | 20-Dec-2024 16:14 | 1627437 | ||
| LKWF1_TS_DEWT_052003.nc | 20-Dec-2024 16:18 | 1471250 | ||
| LKWF1_TS_DEWT_052004.nc | 20-Dec-2024 16:21 | 917729 | ||
| LKWF1_TS_DEWT_052006.nc | 20-Dec-2024 16:23 | 1472582 | ||
| LKWF1_TS_DEWT_052008.nc | 20-Dec-2024 16:28 | 1626234 | ||
| LKWF1_TS_DEWT_052014.nc | 20-Dec-2024 17:02 | 1627795 | ||
| LKWF1_TS_DEWT_052015.nc | 20-Dec-2024 17:08 | 1625461 | ||
| LKWF1_TS_DEWT_052016.nc | 20-Dec-2024 17:18 | 1627561 | ||
| LKWF1_TS_DEWT_052017.nc | 20-Dec-2024 17:25 | 1462510 | ||
| LKWF1_TS_DEWT_052018.nc | 20-Dec-2024 17:31 | 920491 | ||
| LKWF1_TS_DEWT_052021.nc | 20-Dec-2024 17:51 | 1477629 | ||
| LKWF1_TS_DEWT_062002.nc | 20-Dec-2024 16:15 | 1475786 | ||
| LKWF1_TS_DEWT_062003.nc | 20-Dec-2024 16:18 | 1477969 | ||
| LKWF1_TS_DEWT_062004.nc | 20-Dec-2024 16:21 | 1474910 | ||
| LKWF1_TS_DEWT_062006.nc | 20-Dec-2024 16:23 | 1477913 | ||
| LKWF1_TS_DEWT_062008.nc | 20-Dec-2024 16:28 | 1464572 | ||
| LKWF1_TS_DEWT_062014.nc | 20-Dec-2024 17:02 | 919867 | ||
| LKWF1_TS_DEWT_062015.nc | 20-Dec-2024 17:09 | 1466319 | ||
| LKWF1_TS_DEWT_062016.nc | 20-Dec-2024 17:18 | 1627243 | ||
| LKWF1_TS_DEWT_062017.nc | 20-Dec-2024 17:25 | 1627511 | ||
| LKWF1_TS_DEWT_062018.nc | 20-Dec-2024 17:32 | 1627628 | ||
| LKWF1_TS_DEWT_062021.nc | 20-Dec-2024 17:51 | 1627202 | ||
| LKWF1_TS_DEWT_072002.nc | 20-Dec-2024 16:15 | 1627392 | ||
| LKWF1_TS_DEWT_072003.nc | 20-Dec-2024 16:18 | 1162422 | ||
| LKWF1_TS_DEWT_072004.nc | 20-Dec-2024 16:21 | 918165 | ||
| LKWF1_TS_DEWT_072008.nc | 20-Dec-2024 16:28 | 1471536 | ||
| LKWF1_TS_DEWT_072014.nc | 20-Dec-2024 17:03 | 1471255 | ||
| LKWF1_TS_DEWT_072015.nc | 20-Dec-2024 17:10 | 1468871 | ||
| LKWF1_TS_DEWT_072017.nc | 20-Dec-2024 17:26 | 1477804 | ||
| LKWF1_TS_DEWT_072018.nc | 20-Dec-2024 17:32 | 1472694 | ||
| LKWF1_TS_DEWT_072020.nc | 20-Dec-2024 17:45 | 1476699 | ||
| LKWF1_TS_DEWT_072021.nc | 20-Dec-2024 17:52 | 1156459 | ||
| LKWF1_TS_DEWT_082001.nc | 20-Dec-2024 16:05 | 601009 | ||
| LKWF1_TS_DEWT_082002.nc | 20-Dec-2024 16:15 | 1627555 | ||
| LKWF1_TS_DEWT_082003.nc | 20-Dec-2024 16:19 | 1627625 | ||
| LKWF1_TS_DEWT_082004.nc | 20-Dec-2024 16:22 | 1476294 | ||
| LKWF1_TS_DEWT_082008.nc | 20-Dec-2024 16:28 | 1626646 | ||
| LKWF1_TS_DEWT_082014.nc | 20-Dec-2024 17:03 | 1625825 | ||
| LKWF1_TS_DEWT_082015.nc | 20-Dec-2024 17:11 | 1467589 | ||
| LKWF1_TS_DEWT_082016.nc | 20-Dec-2024 17:20 | 1154625 | ||
| LKWF1_TS_DEWT_082018.nc | 20-Dec-2024 17:33 | 914501 | ||
| LKWF1_TS_DEWT_082021.nc | 20-Dec-2024 17:53 | 429550 | ||
| LKWF1_TS_DEWT_092001.nc | 20-Dec-2024 16:06 | 429670 | ||
| LKWF1_TS_DEWT_092002.nc | 20-Dec-2024 16:16 | 429763 | ||
| LKWF1_TS_DEWT_092003.nc | 20-Dec-2024 16:19 | 429680 | ||
| LKWF1_TS_DEWT_092004.nc | 20-Dec-2024 16:22 | 429688 | ||
| LKWF1_TS_DEWT_092008.nc | 20-Dec-2024 16:29 | 426117 | ||
| LKWF1_TS_DEWT_092014.nc | 20-Dec-2024 17:04 | 429682 | ||
| LKWF1_TS_DEWT_092015.nc | 20-Dec-2024 17:13 | 429661 | ||
| LKWF1_TS_DEWT_092016.nc | 20-Dec-2024 17:20 | 429670 | ||
| LKWF1_TS_DEWT_092017.nc | 20-Dec-2024 17:27 | 428352 | ||
| LKWF1_TS_DEWT_092020.nc | 20-Dec-2024 17:46 | 429677 | ||
| LKWF1_TS_DEWT_092021.nc | 20-Dec-2024 17:54 | 429683 | ||
| LKWF1_TS_DEWT_102001.nc | 20-Dec-2024 16:06 | 429677 | ||
| LKWF1_TS_DEWT_102002.nc | 20-Dec-2024 16:16 | 445252 | ||
| LKWF1_TS_DEWT_102003.nc | 20-Dec-2024 16:19 | 450588 | ||
| LKWF1_TS_DEWT_102004.nc | 20-Dec-2024 16:22 | 450182 | ||
| LKWF1_TS_DEWT_102007.nc | 20-Dec-2024 16:26 | 451325 | ||
| LKWF1_TS_DEWT_102008.nc | 20-Dec-2024 16:29 | 450691 | ||
| LKWF1_TS_DEWT_102014.nc | 20-Dec-2024 17:05 | 449914 | ||
| LKWF1_TS_DEWT_102015.nc | 20-Dec-2024 17:14 | 451008 | ||
| LKWF1_TS_DEWT_102016.nc | 20-Dec-2024 17:21 | 450684 | ||
| LKWF1_TS_DEWT_102017.nc | 20-Dec-2024 17:27 | 450950 | ||
| LKWF1_TS_DEWT_102020.nc | 20-Dec-2024 17:47 | 450374 | ||
| LKWF1_TS_DEWT_102021.nc | 20-Dec-2024 17:55 | 451097 | ||
| LKWF1_TS_DEWT_112001.nc | 20-Dec-2024 16:07 | 451552 | ||
| LKWF1_TS_DEWT_112002.nc | 20-Dec-2024 16:16 | 451397 | ||
| LKWF1_TS_DEWT_112003.nc | 20-Dec-2024 16:19 | 429903 | ||
| LKWF1_TS_DEWT_112007.nc | 20-Dec-2024 16:26 | 429885 | ||
| LKWF1_TS_DEWT_112008.nc | 20-Dec-2024 16:29 | 450165 | ||
| LKWF1_TS_DEWT_112014.nc | 20-Dec-2024 17:05 | 429907 | ||
| LKWF1_TS_DEWT_112015.nc | 20-Dec-2024 17:14 | 449419 | ||
| LKWF1_TS_DEWT_112016.nc | 20-Dec-2024 17:21 | 450100 | ||
| LKWF1_TS_DEWT_112017.nc | 20-Dec-2024 17:28 | 451408 | ||
| LKWF1_TS_DEWT_112020.nc | 20-Dec-2024 17:47 | 450503 | ||
| LKWF1_TS_DEWT_112021.nc | 20-Dec-2024 17:56 | 450254 | ||
| LKWF1_TS_DEWT_122001.nc | 20-Dec-2024 16:07 | 450735 | ||
| LKWF1_TS_DEWT_122002.nc | 20-Dec-2024 16:16 | 450113 | ||
| LKWF1_TS_DEWT_122003.nc | 20-Dec-2024 16:20 | 429897 | ||
| LKWF1_TS_DEWT_122007.nc | 20-Dec-2024 16:26 | 428666 | ||
| LKWF1_TS_DEWT_122008.nc | 20-Dec-2024 16:30 | 428654 | ||
| LKWF1_TS_DEWT_122014.nc | 20-Dec-2024 17:06 | 428677 | ||
| LKWF1_TS_DEWT_122015.nc | 20-Dec-2024 17:15 | 429011 | ||
| LKWF1_TS_DEWT_122016.nc | 20-Dec-2024 17:22 | 428682 | ||
| LKWF1_TS_DEWT_122017.nc | 20-Dec-2024 17:29 | 428682 | ||
| LKWF1_TS_DEWT_122020.nc | 20-Dec-2024 17:48 | 428682 | ||
| LKWF1_TS_DEWT_122021.nc | 20-Dec-2024 17:58 | 429012 | ||